SCP
-0 -0 -0 -0 -0 -0 -0 0 0 0 0 0 0 -0 0 0 0 -0 0 0 0 0 0 0 0 -0 -0 0 -0 0 0 0 0 -0 -0 0 -0 -0 0 0 0 0 0 -0
-0 -0 -0 -0 -0 0 0 0 0 0 0 -0 -0 0 0 -0 0 -0 0 0 0 0 0 0 0 0 0 -0 0 -0 0 0 0 -0 0 0 0 0 0 -0 0 0 0 -0
-0 -0 -0 -0 -0 -0 0 0 0 0 0 0 0 0 0 0 0 0 0 0 0 0 0 0 0 0 0 0 0 0 0 0 0 0 0 0 0 0 0 0 0 0 -0 0
-0 -0 -0 -0 -0 -0 0 0 0 0 0 0 0 0 0 0 0 0 0 0 -0 0 -0 0 0 0 0 0 0 0 0 -0 0 0 -0 0 0 0 0 0 0 0 0 -0
0 0 -0 -0 -0 -0 0 0 0 0 0 0 0 0 0 -0 0 0 -0 -0 -0 0 0 0 -0 0 0 0 0 0 0 0 0 -0 0 -0 -0 0 0 0 0 0 0 -0
0 0 0 0 0 0 0 0 0 0 0 0 0 0 0 0 0 0 -0 -0 0 0 0 0 0 0 0 0 0 0 0 0 0 0 -0 0 0 0 0 0 0 -0 -0 -0
0 0 0 0 0 0 0 0 0 0 0 0 0 0 0 0 0 0 -0 -0 0 0 0 0 0 0 0 0 0 0 0 0 0 0 0 0 0 0 0 0 0 -0 0 0
0 0 0 0 0 0 0 0 0 0 0 0 0 0 0 0 0 -0 0 0 0 0 0 0 0 0 0 0 0 0 0 0 0 0 0 0 0 0 0 0 0 0 0 0
0 0 0 0 0 0 0 0 0 0 0 -0 0 0 0 0 0 0 0 -0 0 0 0 0 0 0 0 0 0 -0 0 0 0 0 0 0 0 0 0 0 -0 0 0 0
0 0 0 0 0 0 0 0 0 0 0 -0 0 0 0 0 0 0 0 0 0 0 0 0 0 0 0 0 0 0 0 0 0 0 0 0 -0 0 0 0 -0 -0 0 0
0 0 0 0 0 0 -0 0 0 0 0 -0 0 0 0 0 0 0 0 0 0 0 0 0 0 0 0 0 -0 0 0 0 0 0 0 0 0 0 0 0 0 0 0 0
0 0 0 0 0 0 0 0 0 0 0 0 0 0 0 0 0 0 0 0 0 0 0 0 0 0 0 0 0 0 0 0 0 0 0 0 0 0 -0 0 0 0 0 0
0 0 0 0 0 0 0 0 0 0 -0 -0 0 -0 0 0 0 0 0 0 0 0 0 0 0 0 0 0 0 0 0 0 0 0 0 0 0 0 0 0 0 0 0 0
0 0 0 0 0 0 0 0 0 0 0 -0 -0 0 0 0 0 0 0 0 0 0 0 0 0 0 0 0 0 0 0 0 0 0 0 0 0 0 0 0 0 -0 0 -0
0 0 0 0 0 0 0 0 0 0 0 0 0 0 0 0 0 0 0 0 0 0 0 0 0 0 0 0 0 0 0 0 0 0 0 0 0 0 -0 0 -0 -0 -0 0
0 0 0 0 0 0 0 0 0 0 0 0 -0 -0 0 0 0 0 0 0 0 0 0 0 0 0 0 0 0 0 0 0 0 0 0 0 0 0 0 -0 0 0 0 0
0 0 0 0 0 0 0 0 0 0 0 0 -0 -0 -0 0 0 0 0 0 0 0 0 0 0 0 0 0 0 0 0 0 0 0 0 0 0 0 -0 0 0 0 0 0
0 0 0 0 0 0 0 0 0 0 0 0 0 0 0 0 0 0 0 0 0 0 0 0 0 0 0 0 0 0 0 0 0 0 0 0 0 0 0 0 -0 0 0 0
0 0 -0 0 0 0 0 0 0 0 0 0 0 0 0 0 0 0 0 0 0 0 0 0 0 0 0 0 0 0 0 0 0 0 0 0 0 0 0 -0 -0 -0 0 0
0 0 0 0 0 0 0 0 0 0 0 0 0 0 0 0 0 0 0 0 0 0 0 0 0 0 0 0 0 0 0 0 0 0 0 0 0 0 0 0 0 0 0 0
0 0 0 0 -0 0 0 0 0 0 0 0 0 0 -0 0 0 0 0 0 0 0 0 0 0 0 0 0 0 0 0 0 0 0 0 0 0 0 0 0 0 0 0 0
0 0 0 0 0 0 0 0 0 0 0 0 0 0 -0 -0 0 0 0 0 0 0 0 0 0 0 0 0 0 0 0 0 0 0 0 0 0 0 0 0 0 0 0 0
0 0 0 0 0 0 0 0 0 0 0 0 0 0 0 -0 -0 0 0 0 0 0 0 0 0 0 0 0 0 0 0 0 0 0 0 0 0 0 0 0 0 0 0 0
0 0 0 0 0 0 0 0 0 -0 0 0 0 0 0 0 -0 0 0 0 0 0 0 0 0 0 0 0 0 0 0 0 0 0 0 0 0 0 0 0 0 0 0 0
0 0 0 0 0 0 0 -0 0 0 0 0 0 0 0 0 0 -0 0 0 1 0 0 0 0 0 0 0 0 0 0 0 0 0 0 0 0 0 0 0 0 0 0 0
0 0 0 0 0 -0 0 0 0 0 0 0 0 0 0 0 0 0 -0 0 0 0 0 0 0 0 0 0 0 0 0 0 0 0 0 0 0 0 0 0 0 0 0 0
0 0 -0 -0 0 0 -0 -0 -0 0 0 0 0 0 0 0 0 0 0 -0 -0 0 0 0 0 0 0 0 0 0 0 0 0 0 0 0 0 0 0 0 0 0 0 0
Wind_Speed_500mb
57 57 57 55 61 61 56 22 7 14 24 1 2 2 7 18 24 40 12 4 6 5 1 7 8 12 8 21 39 19 11 12 8 18 11 14 13 16 10 10 10 5 7 11
61 59 56 49 50 55 62 48 13 2 34 4 4 12 11 8 25 23 16 6 3 2 5 5 5 12 11 36 14 20 15 2 5 18 15 11 7 6 6 12 7 10 13 11
63 63 60 50 39 39 41 17 8 6 4 3 2 6 6 13 45 17 34 19 13 8 0 3 3 18 7 29 13 33 19 8 13 12 14 7 7 11 6 8 7 14 12 11
62 62 64 57 42 32 23 6 7 14 8 9 12 3 13 26 23 17 34 20 9 5 2 7 5 1 10 9 17 1 7 12 5 7 11 2 4 8 6 14 14 12 18 24
61 62 62 64 48 29 10 12 13 18 26 29 13 5 7 8 3 15 45 29 48 6 9 14 14 10 7 3 13 9 15 4 2 5 13 10 3 16 25 8 16 17 19 10
54 58 60 60 59 42 14 21 9 6 15 11 8 4 3 9 15 36 49 58 9 11 13 28 34 29 7 12 9 13 7 7 6 7 15 10 12 15 15 11 9 30 23 17
51 51 51 51 51 48 37 30 22 10 9 3 2 24 38 11 18 29 53 40 11 12 15 20 13 3 8 18 14 16 5 6 6 4 10 6 11 11 22 22 12 16 13 15
50 47 46 46 42 38 36 33 14 8 9 14 20 10 10 44 34 18 30 57 18 23 22 7 10 11 13 13 8 18 15 9 7 5 1 6 6 10 7 12 11 8 16 17
50 48 42 40 42 43 33 17 11 10 16 11 9 21 22 10 11 16 15 34 26 15 7 7 8 7 9 10 13 11 13 19 9 5 4 9 11 9 37 46 17 12 20 27
43 46 46 42 39 39 38 27 12 13 16 41 36 11 6 12 13 9 14 24 6 15 6 5 5 9 13 9 9 10 6 5 19 9 5 10 18 32 35 12 21 46 48 36
43 43 45 43 39 39 47 30 3 11 16 61 68 38 46 36 21 5 20 13 11 9 6 7 8 5 5 3 10 14 14 13 10 6 7 6 34 25 15 21 12 61 48 25
46 43 43 43 43 39 42 48 28 28 32 54 40 55 57 56 53 43 17 12 11 1 7 1 5 1 3 5 4 6 6 14 11 11 11 12 48 41 70 21 42 25 33 15
46 46 45 45 44 42 39 53 46 37 26 58 78 86 76 62 56 54 27 18 4 7 20 6 4 4 8 5 6 7 10 4 8 10 8 13 36 38 44 23 42 31 27 22
44 47 48 49 49 47 47 51 52 39 21 16 29 40 40 42 54 46 63 82 64 50 38 6 4 3 9 5 5 4 7 7 9 3 3 23 25 43 49 39 41 39 28 24
47 49 51 50 52 52 55 50 39 40 34 13 36 70 68 61 49 55 62 67 69 62 16 0 5 7 4 2 5 4 2 5 7 10 26 18 28 49 53 46 51 40 44 32
50 51 53 51 51 50 52 13 4 25 13 16 8 26 45 44 49 51 57 61 59 61 19 11 8 4 1 4 5 6 6 8 15 17 48 42 58 62 63 61 65 53 56 42
54 55 55 55 50 45 39 21 14 13 24 12 12 14 22 56 43 43 55 56 50 50 42 15 9 5 5 5 9 17 11 10 26 36 51 38 54 67 66 69 75 64 63 49
53 56 60 61 57 55 57 34 30 35 40 16 7 10 17 4 27 22 37 45 43 30 27 10 15 3 11 6 21 18 6 5 27 42 34 50 53 50 52 75 82 73 73 61
52 58 54 43 13 10 14 29 20 25 24 11 5 6 8 38 11 22 19 29 5 13 9 11 11 7 11 15 26 27 24 23 19 28 36 29 30 37 57 55 64 83 73 67
47 39 13 11 4 33 32 16 11 19 16 13 8 12 8 30 19 9 3 14 9 7 12 27 8 9 30 20 44 41 28 28 41 36 23 22 20 48 50 50 43 43 60 63
21 12 11 35 44 18 9 8 12 12 7 13 19 29 3 20 3 7 10 6 7 8 9 16 8 15 31 49 42 31 28 30 42 39 40 31 25 46 47 42 38 30 28 50
25 29 46 26 9 8 5 5 8 6 8 9 8 11 9 10 5 8 11 7 2 10 20 10 6 9 61 71 57 52 45 36 41 39 38 33 33 33 37 36 32 29 24 46
22 8 8 7 8 3 7 3 6 5 8 5 5 7 9 5 16 10 6 7 7 21 8 10 10 29 44 62 78 56 60 56 50 47 48 48 45 39 41 38 30 21 22 49
6 7 9 5 7 6 3 9 8 17 28 9 11 9 7 7 8 7 9 6 5 5 10 8 12 52 35 47 68 70 71 68 61 53 49 48 44 38 32 27 22 21 27 49
6 8 7 7 8 15 31 30 20 36 34 11 7 4 6 5 6 6 2 8 5 9 8 9 47 74 65 40 62 66 82 72 66 56 49 43 39 34 30 28 23 19 24 28
7 9 9 18 17 2 23 26 24 30 38 6 4 4 5 4 6 6 9 1 6 7 10 51 62 68 62 17 70 82 88 79 69 60 53 44 35 33 30 28 26 24 22 28
8 14 25 37 36 33 21 16 20 23 27 5 3 4 1 5 5 8 9 8 7 33 49 57 49 56 61 17 48 90 84 76 71 64 55 48 41 37 32 28 24 24 19 17
Wind_Direction_500mb
345 340 337 338 335 339 351 0 341 129 189 211 113 165 240 316 312 1 228 232 141 131 45 25 323 228 226 317 199 168 176 146 199 231 249 209 183 200 144 142 217 148 120 272
353 348 342 343 342 342 349 335 290 120 208 240 294 300 303 282 18 332 324 273 49 194 34 15 87 310 321 351 129 158 188 160 20 344 347 7 126 159 156 142 61 195 142 249
354 353 349 343 342 338 342 335 339 335 238 328 127 356 321 350 354 328 359 288 66 69 87 293 256 353 343 342 31 162 127 145 156 196 217 224 351 349 6 111 112 170 211 182
354 354 352 348 346 340 346 356 299 6 310 319 346 310 339 57 5 325 336 315 256 178 167 354 360 149 307 342 36 235 106 163 93 252 237 275 357 327 284 202 176 172 182 177
351 353 353 352 352 353 8 11 1 338 305 304 332 82 207 99 47 244 286 283 277 176 160 195 220 164 235 243 350 57 349 147 142 284 343 42 186 357 345 162 96 126 155 142
349 350 352 354 355 4 15 353 317 279 280 318 334 260 273 220 191 289 247 253 173 205 217 212 234 202 239 130 97 4 43 115 63 276 335 16 19 330 345 69 74 135 164 182
345 347 349 352 355 1 358 356 334 314 276 282 255 328 312 251 277 253 281 279 175 211 165 191 274 228 280 219 162 180 53 78 73 259 8 66 250 347 71 80 34 353 63 108
340 343 345 345 346 347 347 341 313 301 292 310 297 311 315 305 317 254 255 274 169 166 145 49 16 340 2 327 196 187 148 139 85 118 145 260 353 356 73 47 310 307 153 140
333 336 339 341 338 335 336 12 25 278 304 249 322 311 300 281 314 336 317 297 203 169 88 89 164 223 204 288 310 149 147 103 111 110 157 198 204 213 117 95 263 201 196 170
333 333 335 334 332 327 326 334 322 296 270 271 288 251 273 303 335 263 295 329 259 174 104 112 194 250 191 221 216 152 100 43 193 174 182 289 194 181 111 101 238 183 187 180
339 335 332 332 331 324 317 321 275 324 271 271 260 251 280 293 270 272 315 346 358 34 90 143 231 194 245 352 226 171 156 166 197 158 128 184 167 86 152 215 212 178 184 193
336 334 330 327 328 325 312 308 301 308 266 257 261 253 251 244 246 277 296 277 277 247 55 252 121 284 54 232 335 332 81 184 174 154 207 238 170 191 203 244 166 119 137 115
335 334 331 326 325 324 316 301 306 319 285 288 265 261 251 259 256 251 240 274 212 29 350 237 176 212 135 166 248 323 318 151 109 81 322 131 136 142 171 130 157 153 151 144
326 327 327 325 321 319 312 297 292 286 276 269 281 258 265 245 239 238 239 247 268 288 304 299 129 170 191 258 210 162 226 27 137 71 305 105 149 162 153 151 164 165 154 144
320 322 320 319 319 317 309 300 292 265 226 302 304 292 261 243 246 242 237 240 251 255 267 347 227 224 86 358 47 309 51 176 115 210 185 132 167 156 157 158 164 164 165 161
311 315 317 315 317 314 321 318 329 134 189 260 275 297 278 252 239 245 239 232 239 234 199 216 222 178 97 129 197 272 75 337 277 180 184 158 145 156 165 156 160 168 170 165
307 309 308 309 307 298 282 248 201 176 328 280 272 270 261 248 238 255 226 230 228 214 210 210 194 240 66 133 184 205 55 44 179 153 157 142 149 139 159 156 160 156 154 140
306 306 306 303 298 283 278 295 266 249 262 242 262 269 283 229 201 209 215 183 187 190 195 180 183 212 173 226 234 199 162 35 123 152 130 145 143 137 148 162 167 168 171 172
311 311 313 301 287 264 305 310 260 248 234 268 281 278 275 350 8 211 194 169 128 188 157 189 162 196 210 214 210 209 152 170 156 136 138 140 147 145 144 141 149 171 173 170
318 319 316 280 232 324 287 260 214 203 225 231 259 262 272 349 333 298 208 156 164 156 221 188 183 235 213 198 202 205 183 181 171 163 149 145 141 152 153 151 153 144 170 171
329 313 274 298 310 302 233 254 191 198 241 219 233 255 218 300 305 278 326 258 160 155 237 164 215 219 224 223 220 211 203 194 187 186 175 150 146 155 150 147 150 155 162 181
300 300 296 305 300 265 267 236 286 222 240 211 228 289 258 246 307 293 315 279 79 193 164 146 227 233 208 222 222 217 209 183 163 172 174 174 167 158 158 154 155 164 177 183
314 277 271 256 263 235 249 240 288 279 286 339 323 312 306 157 176 269 263 271 249 338 176 195 197 166 195 211 210 205 188 183 167 150 151 151 142 148 155 148 143 134 169 186
291 288 287 225 274 297 36 310 282 302 297 244 309 296 350 309 174 208 256 273 277 273 146 138 18 346 302 226 211 210 188 180 174 166 161 155 150 146 148 157 157 149 140 177
274 280 253 252 25 342 356 4 359 345 333 301 315 316 355 302 270 155 264 294 351 26 23 328 319 324 327 285 202 197 182 183 178 176 179 176 171 169 168 173 170 153 156 159
257 249 277 281 293 210 322 352 343 333 340 338 2 335 5 17 322 284 209 132 49 22 296 315 325 342 352 294 199 192 185 182 176 176 178 180 175 171 171 176 190 191 187 178
243 245 252 266 283 277 309 315 318 339 327 0 356 28 10 323 10 318 8 28 9 325 332 339 360 8 8 38 179 180 173 163 161 161 164 166 169 177 179 181 177 179 172 190
Wind_Speed_850mb
57 57 57 55 61 61 56 22 7 14 24 1 2 2 7 18 24 40 12 4 6 5 1 7 8 12 8 21 39 19 11 12 8 18 11 14 13 16 10 10 10 5 7 11
61 59 56 49 50 55 62 48 13 2 34 4 4 12 11 8 25 23 16 6 3 2 5 5 5 12 11 36 14 20 15 2 5 18 15 11 7 6 6 12 7 10 13 11
63 63 60 50 39 39 41 17 8 6 4 3 2 6 6 13 45 17 34 19 13 8 0 3 3 18 7 29 13 33 19 8 13 12 14 7 7 11 6 8 7 14 12 11
62 62 64 57 42 32 23 6 7 14 8 9 12 3 13 26 23 17 34 20 9 5 2 7 5 1 10 9 17 1 7 12 5 7 11 2 4 8 6 14 14 12 18 24
61 62 62 64 48 29 10 12 13 18 26 29 13 5 7 8 3 15 45 29 48 6 9 14 14 10 7 3 13 9 15 4 2 5 13 10 3 16 25 8 16 17 19 10
54 58 60 60 59 42 14 21 9 6 15 11 8 4 3 9 15 36 49 58 9 11 13 28 34 29 7 12 9 13 7 7 6 7 15 10 12 15 15 11 9 30 23 17
51 51 51 51 51 48 37 30 22 10 9 3 2 24 38 11 18 29 53 40 11 12 15 20 13 3 8 18 14 16 5 6 6 4 10 6 11 11 22 22 12 16 13 15
50 47 46 46 42 38 36 33 14 8 9 14 20 10 10 44 34 18 30 57 18 23 22 7 10 11 13 13 8 18 15 9 7 5 1 6 6 10 7 12 11 8 16 17
50 48 42 40 42 43 33 17 11 10 16 11 9 21 22 10 11 16 15 34 26 15 7 7 8 7 9 10 13 11 13 19 9 5 4 9 11 9 37 46 17 12 20 27
43 46 46 42 39 39 38 27 12 13 16 41 36 11 6 12 13 9 14 24 6 15 6 5 5 9 13 9 9 10 6 5 19 9 5 10 18 32 35 12 21 46 48 36
43 43 45 43 39 39 47 30 3 11 16 61 68 38 46 36 21 5 20 13 11 9 6 7 8 5 5 3 10 14 14 13 10 6 7 6 34 25 15 21 12 61 48 25
46 43 43 43 43 39 42 48 28 28 32 54 40 55 57 56 53 43 17 12 11 1 7 1 5 1 3 5 4 6 6 14 11 11 11 12 48 41 70 21 42 25 33 15
46 46 45 45 44 42 39 53 46 37 26 58 78 86 76 62 56 54 27 18 4 7 20 6 4 4 8 5 6 7 10 4 8 10 8 13 36 38 44 23 42 31 27 22
44 47 48 49 49 47 47 51 52 39 21 16 29 40 40 42 54 46 63 82 64 50 38 6 4 3 9 5 5 4 7 7 9 3 3 23 25 43 49 39 41 39 28 24
47 49 51 50 52 52 55 50 39 40 34 13 36 70 68 61 49 55 62 67 69 62 16 0 5 7 4 2 5 4 2 5 7 10 26 18 28 49 53 46 51 40 44 32
50 51 53 51 51 50 52 13 4 25 13 16 8 26 45 44 49 51 57 61 59 61 19 11 8 4 1 4 5 6 6 8 15 17 48 42 58 62 63 61 65 53 56 42
54 55 55 55 50 45 39 21 14 13 24 12 12 14 22 56 43 43 55 56 50 50 42 15 9 5 5 5 9 17 11 10 26 36 51 38 54 67 66 69 75 64 63 49
53 56 60 61 57 55 57 34 30 35 40 16 7 10 17 4 27 22 37 45 43 30 27 10 15 3 11 6 21 18 6 5 27 42 34 50 53 50 52 75 82 73 73 61
52 58 54 43 13 10 14 29 20 25 24 11 5 6 8 38 11 22 19 29 5 13 9 11 11 7 11 15 26 27 24 23 19 28 36 29 30 37 57 55 64 83 73 67
47 39 13 11 4 33 32 16 11 19 16 13 8 12 8 30 19 9 3 14 9 7 12 27 8 9 30 20 44 41 28 28 41 36 23 22 20 48 50 50 43 43 60 63
21 12 11 35 44 18 9 8 12 12 7 13 19 29 3 20 3 7 10 6 7 8 9 16 8 15 31 49 42 31 28 30 42 39 40 31 25 46 47 42 38 30 28 50
25 29 46 26 9 8 5 5 8 6 8 9 8 11 9 10 5 8 11 7 2 10 20 10 6 9 61 71 57 52 45 36 41 39 38 33 33 33 37 36 32 29 24 46
22 8 8 7 8 3 7 3 6 5 8 5 5 7 9 5 16 10 6 7 7 21 8 10 10 29 44 62 78 56 60 56 50 47 48 48 45 39 41 38 30 21 22 49
6 7 9 5 7 6 3 9 8 17 28 9 11 9 7 7 8 7 9 6 5 5 10 8 12 52 35 47 68 70 71 68 61 53 49 48 44 38 32 27 22 21 27 49
6 8 7 7 8 15 31 30 20 36 34 11 7 4 6 5 6 6 2 8 5 9 8 9 47 74 65 40 62 66 82 72 66 56 49 43 39 34 30 28 23 19 24 28
7 9 9 18 17 2 23 26 24 30 38 6 4 4 5 4 6 6 9 1 6 7 10 51 62 68 62 17 70 82 88 79 69 60 53 44 35 33 30 28 26 24 22 28
8 14 25 37 36 33 21 16 20 23 27 5 3 4 1 5 5 8 9 8 7 33 49 57 49 56 61 17 48 90 84 76 71 64 55 48 41 37 32 28 24 24 19 17
Wind_Direction_850mb
345 340 337 338 335 339 351 0 341 129 189 211 113 165 240 316 312 1 228 232 141 131 45 25 323 228 226 317 199 168 176 146 199 231 249 209 183 200 144 142 217 148 120 272
353 348 342 343 342 342 349 335 290 120 208 240 294 300 303 282 18 332 324 273 49 194 34 15 87 310 321 351 129 158 188 160 20 344 347 7 126 159 156 142 61 195 142 249
354 353 349 343 342 338 342 335 339 335 238 328 127 356 321 350 354 328 359 288 66 69 87 293 256 353 343 342 31 162 127 145 156 196 217 224 351 349 6 111 112 170 211 182
354 354 352 348 346 340 346 356 299 6 310 319 346 310 339 57 5 325 336 315 256 178 167 354 360 149 307 342 36 235 106 163 93 252 237 275 357 327 284 202 176 172 182 177
351 353 353 352 352 353 8 11 1 338 305 304 332 82 207 99 47 244 286 283 277 176 160 195 220 164 235 243 350 57 349 147 142 284 343 42 186 357 345 162 96 126 155 142
349 350 352 354 355 4 15 353 317 279 280 318 334 260 273 220 191 289 247 253 173 205 217 212 234 202 239 130 97 4 43 115 63 276 335 16 19 330 345 69 74 135 164 182
345 347 349 352 355 1 358 356 334 314 276 282 255 328 312 251 277 253 281 279 175 211 165 191 274 228 280 219 162 180 53 78 73 259 8 66 250 347 71 80 34 353 63 108
340 343 345 345 346 347 347 341 313 301 292 310 297 311 315 305 317 254 255 274 169 166 145 49 16 340 2 327 196 187 148 139 85 118 145 260 353 356 73 47 310 307 153 140
333 336 339 341 338 335 336 12 25 278 304 249 322 311 300 281 314 336 317 297 203 169 88 89 164 223 204 288 310 149 147 103 111 110 157 198 204 213 117 95 263 201 196 170
333 333 335 334 332 327 326 334 322 296 270 271 288 251 273 303 335 263 295 329 259 174 104 112 194 250 191 221 216 152 100 43 193 174 182 289 194 181 111 101 238 183 187 180
339 335 332 332 331 324 317 321 275 324 271 271 260 251 280 293 270 272 315 346 358 34 90 143 231 194 245 352 226 171 156 166 197 158 128 184 167 86 152 215 212 178 184 193
336 334 330 327 328 325 312 308 301 308 266 257 261 253 251 244 246 277 296 277 277 247 55 252 121 284 54 232 335 332 81 184 174 154 207 238 170 191 203 244 166 119 137 115
335 334 331 326 325 324 316 301 306 319 285 288 265 261 251 259 256 251 240 274 212 29 350 237 176 212 135 166 248 323 318 151 109 81 322 131 136 142 171 130 157 153 151 144
326 327 327 325 321 319 312 297 292 286 276 269 281 258 265 245 239 238 239 247 268 288 304 299 129 170 191 258 210 162 226 27 137 71 305 105 149 162 153 151 164 165 154 144
320 322 320 319 319 317 309 300 292 265 226 302 304 292 261 243 246 242 237 240 251 255 267 347 227 224 86 358 47 309 51 176 115 210 185 132 167 156 157 158 164 164 165 161
311 315 317 315 317 314 321 318 329 134 189 260 275 297 278 252 239 245 239 232 239 234 199 216 222 178 97 129 197 272 75 337 277 180 184 158 145 156 165 156 160 168 170 165
307 309 308 309 307 298 282 248 201 176 328 280 272 270 261 248 238 255 226 230 228 214 210 210 194 240 66 133 184 205 55 44 179 153 157 142 149 139 159 156 160 156 154 140
306 306 306 303 298 283 278 295 266 249 262 242 262 269 283 229 201 209 215 183 187 190 195 180 183 212 173 226 234 199 162 35 123 152 130 145 143 137 148 162 167 168 171 172
311 311 313 301 287 264 305 310 260 248 234 268 281 278 275 350 8 211 194 169 128 188 157 189 162 196 210 214 210 209 152 170 156 136 138 140 147 145 144 141 149 171 173 170
318 319 316 280 232 324 287 260 214 203 225 231 259 262 272 349 333 298 208 156 164 156 221 188 183 235 213 198 202 205 183 181 171 163 149 145 141 152 153 151 153 144 170 171
329 313 274 298 310 302 233 254 191 198 241 219 233 255 218 300 305 278 326 258 160 155 237 164 215 219 224 223 220 211 203 194 187 186 175 150 146 155 150 147 150 155 162 181
300 300 296 305 300 265 267 236 286 222 240 211 228 289 258 246 307 293 315 279 79 193 164 146 227 233 208 222 222 217 209 183 163 172 174 174 167 158 158 154 155 164 177 183
314 277 271 256 263 235 249 240 288 279 286 339 323 312 306 157 176 269 263 271 249 338 176 195 197 166 195 211 210 205 188 183 167 150 151 151 142 148 155 148 143 134 169 186
291 288 287 225 274 297 36 310 282 302 297 244 309 296 350 309 174 208 256 273 277 273 146 138 18 346 302 226 211 210 188 180 174 166 161 155 150 146 148 157 157 149 140 177
274 280 253 252 25 342 356 4 359 345 333 301 315 316 355 302 270 155 264 294 351 26 23 328 319 324 327 285 202 197 182 183 178 176 179 176 171 169 168 173 170 153 156 159
257 249 277 281 293 210 322 352 343 333 340 338 2 335 5 17 322 284 209 132 49 22 296 315 325 342 352 294 199 192 185 182 176 176 178 180 175 171 171 176 190 191 187 178
243 245 252 266 283 277 309 315 318 339 327 0 356 28 10 323 10 318 8 28 9 325 332 339 360 8 8 38 179 180 173 163 161 161 164 166 169 177 179 181 177 179 172 190